Weather History for Caldwell, NJ

Change the Weather History Date:

Wednesday, November 21, 2012

  Actual Average Record
Temperature  
Mean Temperature 42 °F -  
Max Temperature 55 °F 52 °F 75 °F (1985)
Min Temperature 30 °F 30 °F 13 °F (1951)
Degree Days  
Heating Degree Days 22    
Moisture  
Dew Point 27 °F    
Average Humidity 62    
Maximum Humidity 89    
Minimum Humidity 31    
Precipitation  
Precipitation 0.00 in - - ()
Sea Level Pressure  
Sea Level Pressure 30.22 in    
Wind  
Wind Speed 2 mph (ENE)    
Max Wind Speed 10 mph    
Max Gust Speed -    
Visibility 10 miles    
Events      
Averages and records for this station are not official NWS values.
T = Trace of Precipitation, MM = Missing Value Source: NWS Daily Summary

Daily Weather History Graph

Daily Weather History Graph

Search for Another Location

Airport:

Trip Planner

Search our weather history database for the weather conditions in past years. The results will help you decide how hot, cold, wet, or windy it might be!

Date:

Astronomy

Nov. 21, 2012 Rise Set
Actual Time 6:51 AM EST 4:34 PM EST
Civil Twilight 6:21 AM EST 5:03 PM EST
Nautical Twilight 5:48 AM EST 5:37 PM EST
Astronomical Twilight 5:15 AM EST 6:10 PM EST
Moon 12:51 PM EST 12:05 AM EST
Length of Visible Light 10h 42m
Length of Day
9h 42m
First Quarter, 61% of the Moon is Illuminated
Nov 21
First Quarter
Nov 28
Full
Dec 6
Last Quarter
Dec 13
New
Dec 20
First Quarter

Hourly Weather History & Observations

Time (EST) Temp. Windchill Dew Point Humidity Pressure Visibility Wind Dir Wind Speed Gust Speed Precip Events Conditions
12:53 AM 36.0 °F - 30.0 °F 79% 30.17 in 10.0 mi Calm Calm - N/A   Clear
1:53 AM 36.0 °F - 30.0 °F 79% 30.18 in 10.0 mi Calm Calm - N/A   Clear
2:53 AM 35.1 °F - 30.0 °F 82% 30.19 in 10.0 mi Calm Calm - N/A   Clear
3:53 AM 34.0 °F - 30.0 °F 85% 30.19 in 10.0 mi Calm Calm - N/A   Clear
4:53 AM 32.0 °F - 28.0 °F 85% 30.21 in 10.0 mi Calm Calm - N/A   Clear
5:53 AM 30.9 °F - 28.0 °F 89% 30.22 in 10.0 mi Calm Calm - N/A   Clear
6:53 AM 30.0 °F - 26.1 °F 85% 30.23 in 9.0 mi Calm Calm - N/A   Clear
7:53 AM 34.0 °F 31.0 °F 28.0 °F 79% 30.24 in 10.0 mi East 3.5 mph - N/A   Clear
8:53 AM 42.1 °F 40.2 °F 30.0 °F 62% 30.25 in 10.0 mi NNE 3.5 mph - N/A   Clear
9:53 AM 46.9 °F - 30.0 °F 52% 30.24 in 10.0 mi Variable 3.5 mph - N/A   Clear
10:53 AM 51.1 °F - 30.0 °F 44% 30.24 in 10.0 mi East 10.4 mph - N/A   Clear
11:53 AM 53.1 °F - 28.9 °F 40% 30.22 in 10.0 mi East 6.9 mph - N/A   Clear
12:53 PM 53.1 °F - 27.0 °F 37% 30.21 in 10.0 mi ESE 9.2 mph - N/A   Clear
1:53 PM 54.0 °F - 25.0 °F 33% 30.19 in 10.0 mi ENE 6.9 mph - N/A   Clear
2:53 PM 55.0 °F - 25.0 °F 31% 30.19 in 10.0 mi NE 3.5 mph - N/A   Clear
3:53 PM 53.1 °F - 23.0 °F 31% 30.20 in 10.0 mi ENE 6.9 mph - N/A   Clear
4:53 PM 48.9 °F - 24.1 °F 38% 30.21 in 10.0 mi Calm Calm - N/A   Clear
5:53 PM 43.0 °F - 27.0 °F 53% 30.23 in 10.0 mi Calm Calm - N/A   Clear
6:53 PM 39.9 °F - 26.1 °F 58% 30.25 in 10.0 mi Calm Calm - N/A   Clear
7:53 PM 37.0 °F - 25.0 °F 62% 30.26 in 10.0 mi Calm Calm - N/A   Clear
8:53 PM 36.0 °F - 25.0 °F 64% 30.27 in 10.0 mi Calm Calm - N/A   Clear
9:53 PM 34.0 °F - 24.1 °F 67% 30.26 in 10.0 mi Calm Calm - N/A   Clear
10:53 PM 33.1 °F - 24.1 °F 70% 30.27 in 10.0 mi Calm Calm - N/A   Clear
11:53 PM 32.0 °F - 24.1 °F 73% 30.27 in 10.0 mi Calm Calm - N/A   Clear